Miscellaneous Local Product
Issued by NWS North Platte, NE

Home | Current Version | Previous Version | Text Only | Print | Product List | Glossary On
Versions: 1 2 3 4 5 6 7 8 9 10 11 12 13 14 15 16 17 18 19 20 21 22 23 24 25 26 27 28 29 30 31 32 33 34 35 36 37 38 39 40 41 42 43 44 45 46 47 48 49 50
000
AXUS43 KLBF 041310
MISLBF


WESTERN AND NORTH CENTRAL NEBRASKA HOURLY WEATHER ROUNDUP
NATIONAL WEATHER SERVICE NORTH PLATTE NE
800 AM CDT WED MAY 04 2016

NOTE: "FAIR" INDICATES FEW OR NO CLOUDS BELOW 12,000 FEET WITH NO
SIGNIFICANT WEATHER AND/OR OBSTRUCTIONS TO VISIBILITY.

NOTE: STATIONS NOT REPORTING VARIABLES SUCH AS SKY/WEATHER OR
PRESSURE ARE PROVIDED BY RAWS AND APRS NETWORKS AND ARE NOT UNDER
NATIONAL WEATHER SERVICE QUALITY CONTROL.

...OBSERVATIONS IN AND NEAR THE EASTERN PANHANDLE OF NEBRASKA...

CITY           SKY/WX    TMP DP  RH WIND       PRES   REMARKS
PINE RIDGE     SUNNY     40  36  86 CALM      30.17R
CHADRON        SUNNY     43  39  86 SW6       30.19R
ALLIANCE       SUNNY     41  37  86 CALM      30.19R
SIDNEY         SUNNY     44  38  79 W8        30.21R
CRESCENT LAKE    N/A     49  42  78 NE6         N/A
BIG SPRINGS      N/A     41  38  89 W6          N/A
$$

...OBSERVATIONS IN NORTHERN NEBRASKA AND FAR SOUTHERN SOUTH DAKOTA...

CITY           SKY/WX    TMP DP  RH WIND       PRES   REMARKS
WINNER         FAIR      45  37  73 W5        30.14R
VALENTINE      SUNNY     45  38  76 W5        30.15R
THEDFORD       SUNNY     47  42  81 NW5       30.16R
AINSWORTH      SUNNY     47  38  70 NW5       30.13S
O`NEILL        SUNNY     48  36  64 NW8       30.11R
ORD            SUNNY     47  39  74 NW8       30.10R
BROKEN BOW     SUNNY     49  40  71 N7        30.12R
VALENTINE NWR    N/A     44  39  84 W6          N/A
BUTTE            N/A     47  37  67 NW3         N/A
HALSEY           N/A     47  40  77 NW3         N/A
CHAMBERS         N/A     54  39  56 N3          N/A
EWING            N/A     49  36  61 N8          N/A
$$

...OBSERVATIONS IN SOUTHWEST NEBRASKA AND FAR NORTHEAST COLORADO...

CITY           SKY/WX    TMP DP  RH WIND       PRES   REMARKS
HOLYOKE        FAIR      46  37  71 W7        30.18R
IMPERIAL       SUNNY     47  40  76 N8        30.17R
OGALLALA       SUNNY     44  40  85 W5        30.18S
NORTH PLATTE   SUNNY     45  42  89 NW3       30.15R
MCCOOK         SUNNY     47  40  76 W8        30.15R
LEXINGTON      SUNNY     46  42  85 NW6       30.13R
PAXTON           N/A     43  40  89 W3          N/A
STAPLETON        N/A     48  42  79 CALM        N/A
GOTHENBURG       N/A     44  38  78 W5          N/A
CALLAWAY         N/A     46  40  80 N6          N/A
$$

...OBSERVATIONS IN CENTRAL LINCOLN COUNTY AREA...

CITY           SKY/WX    TMP DP  RH WIND       PRES   REMARKS
N.P. AIRPORT   SUNNY     45  42  89 NW3       30.15R
N.P. DOWNTOWN    N/A     49  42  78 CALM        N/A
N.P. SOUTHEAST   N/A     48  41  77 CALM        N/A
N.P. HILLCREST   N/A     46  42  85 NW3         N/A
$$

...SOME OBSERVATIONS FROM AROUND THE REGION...

CITY           SKY/WX    TMP DP  RH WIND       PRES   REMARKS
DENVER         SUNNY     48  28  46 SW13      30.25R
LARAMIE        CLOUDY    32  30  92 S6        30.31R WCI  26
CHEYENNE       SUNNY     42  32  67 W12       30.27R
SCOTTSBLUFF    SUNNY     44  39  82 NW8       30.20R
RAPID CITY     SUNNY     51  39  63 NW6       30.16R
BISMARCK       SUNNY     43  37  79 CALM      30.13R
PIERRE         SUNNY     48  37  65 CALM      30.13R
SIOUX FALLS    SUNNY     48  36  63 N9        30.07R
OMAHA          SUNNY     51  38  60 N12       30.00R
GRAND ISLAND   SUNNY     50  39  66 NW9       30.09R
KANSAS CITY    SUNNY     56  40  55 N12       29.91R
WICHITA        SUNNY     58  45  62 NW17G26   30.02R
OKLAHOMA CITY  SUNNY     55  47  74 NW8       30.05R
DALLAS         SUNNY     62  53  72 W8        30.07R
AMARILLO       SUNNY     49  39  68 W9        30.22R
DODGE CITY     SUNNY     49  39  68 W14       30.12R
HAYS           SUNNY     52  37  58 NW10      30.10R
GOODLAND       SUNNY     48  37  65 W12       30.18R
$$




USA.gov is the U.S. government's official web portal to all federal, state and local government web resources and services.